| time (UTC) | temp F | wind direction | speed MPH | gust MPH | rain 1hr in | rain 24hr in | rain mn in | humidity % | barometer mb |
| 20260902053004 | 59 | 255 | 7.0 | 14.0 | 0.00 | 0.28 | 0.01 | 65 | 1013.9 |
| 20260902052504 | 60 | 249 | 7.0 | 14.0 | 0.00 | 0.28 | 0.01 | 64 | 1013.9 |
| 20260902052004 | 60 | 252 | 8.0 | 14.0 | 0.00 | 0.28 | 0.01 | 66 | 1013.9 |
| 20260902051504 | 59 | 261 | 7.0 | 14.0 | 0.00 | 0.28 | 0.01 | 65 | 1014.0 |
| 20260902051025 | 59 | 259 | 7.0 | 11.0 | 0.00 | 0.28 | 0.01 | 65 | 1014.1 |
| 20260902050504 | 60 | 255 | 8.0 | 11.0 | 0.00 | 0.28 | 0.01 | 64 | 1014.1 |
| 20260902050007 | 60 | 252 | 8.0 | 11.0 | 0.00 | 0.28 | 0.01 | 66 | 1014.1 |
| 20260902045504 | 60 | 252 | 8.0 | 18.0 | 0.00 | 0.28 | 0.01 | 65 | 1014.1 |
| 20260902045025 | 60 | 256 | 9.0 | 18.0 | 0.00 | 0.28 | 0.01 | 64 | 1014.2 |
| 20260902044525 | 60 | 261 | 9.0 | 14.0 | 0.00 | 0.28 | 0.01 | 65 | 1014.2 |
| 20260902044004 | 60 | 259 | 10.0 | 17.0 | 0.00 | 0.28 | 0.01 | 64 | 1014.2 |
| 20260902043504 | 60 | 253 | 10.0 | 17.0 | 0.00 | 0.28 | 0.01 | 64 | 1014.1 |
| 20260902043004 | 60 | 258 | 10.0 | 17.0 | 0.00 | 0.28 | 0.01 | 65 | 1014.1 |
| 20260902042504 | 60 | 256 | 10.0 | 18.0 | 0.00 | 0.28 | 0.01 | 65 | 1014.2 |
| 20260902042004 | 60 | 244 | 10.0 | 18.0 | 0.00 | 0.28 | 0.01 | 65 | 1014.3 |
| 20260902041504 | 60 | 245 | 10.0 | 17.0 | 0.00 | 0.28 | 0.01 | 64 | 1014.4 |
| 20260902041004 | 60 | 264 | 11.0 | 18.0 | 0.00 | 0.28 | 0.01 | 64 | 1014.4 |
| 20260902040504 | 60 | 280 | 11.0 | 18.0 | 0.00 | 0.28 | 0.01 | 64 | 1014.4 |
| 20260902040004 | 60 | 281 | 11.0 | 17.0 | 0.00 | 0.28 | 0.01 | 64 | 1014.4 |
| 20260902035504 | 60 | 281 | 11.0 | 18.0 | 0.00 | 0.28 | 0.01 | 62 | 1014.5 |
| 20260902035004 | 61 | 277 | 10.0 | 18.0 | 0.00 | 0.28 | 0.01 | 64 | 1014.6 |
| 20260902034505 | 62 | 268 | 9.0 | 18.0 | 0.00 | 0.28 | 0.01 | 63 | 1014.6 |
| 20260902034004 | 62 | 261 | 10.0 | 17.0 | 0.00 | 0.28 | 0.01 | 64 | 1014.6 |
| 20260902033525 | 61 | 262 | 11.0 | 15.0 | 0.00 | 0.28 | 0.01 | 65 | 1014.7 |
| 20260902033004 | 61 | 273 | 11.0 | 17.0 | 0.00 | 0.28 | 0.01 | 64 | 1014.7 |
| 20260902032525 | 61 | 280 | 10.0 | 17.0 | 0.00 | 0.28 | 0.01 | 62 | 1014.7 |
| 20260902032004 | 61 | 280 | 9.0 | 19.0 | 0.00 | 0.28 | 0.01 | 63 | 1014.9 |
| 20260902031504 | 61 | 281 | 10.0 | 19.0 | 0.00 | 0.28 | 0.01 | 64 | 1015.0 |
| 20260902031004 | 61 | 276 | 11.0 | 18.0 | 0.00 | 0.28 | 0.01 | 64 | 1015.0 |
| 20260902030504 | 60 | 252 | 10.0 | 19.0 | 0.00 | 0.28 | 0.01 | 64 | 1015.1 |
| 20260902030004 | 61 | 245 | 10.0 | 19.0 | 0.00 | 0.28 | 0.01 | 63 | 1015.1 |
| 20260902025504 | 61 | 267 | 10.0 | 18.0 | 0.00 | 0.28 | 0.01 | 63 | 1015.1 |
| 20260902025004 | 62 | 264 | 10.0 | 17.0 | 0.00 | 0.28 | 0.01 | 63 | 1015.1 |
| 20260902024525 | 62 | 258 | 10.0 | 18.0 | 0.00 | 0.28 | 0.01 | 65 | 1015.2 |
| 20260902024025 | 61 | 272 | 10.0 | 18.0 | 0.00 | 0.28 | 0.01 | 65 | 1015.4 |
| 20260902023504 | 61 | 272 | 10.0 | 19.0 | 0.00 | 0.28 | 0.01 | 66 | 1015.3 |
| 20260902023004 | 60 | 271 | 10.0 | 15.0 | 0.00 | 0.28 | 0.01 | 65 | 1015.3 |
| 20260902022504 | 61 | 282 | 11.0 | 17.0 | 0.00 | 0.28 | 0.01 | 64 | 1015.4 |
| 20260902022004 | 61 | 278 | 10.0 | 19.0 | 0.00 | 0.28 | 0.01 | 65 | 1015.5 |
| 20260902021504 | 60 | 261 | 8.0 | 19.0 | 0.00 | 0.28 | 0.01 | 65 | 1015.5 |
| 20260902021004 | 59 | 253 | 9.0 | 15.0 | 0.00 | 0.28 | 0.01 | 65 | 1015.5 |
| 20260902020504 | 60 | 258 | 9.0 | 15.0 | 0.00 | 0.28 | 0.01 | 65 | 1015.5 |
| 20260902020025 | 60 | 255 | 9.0 | 15.0 | 0.00 | 0.28 | 0.01 | 66 | 1015.6 |
| 20260902015504 | 60 | 247 | 10.0 | 15.0 | 0.00 | 0.28 | 0.01 | 65 | 1015.6 |
| 20260902015004 | 60 | 241 | 10.0 | 15.0 | 0.00 | 0.28 | 0.01 | 64 | 1015.7 |
| 20260902014504 | 61 | 255 | 10.0 | 14.0 | 0.00 | 0.28 | 0.01 | 66 | 1015.7 |
| 20260902014004 | 60 | 263 | 10.0 | 17.0 | 0.00 | 0.28 | 0.01 | 67 | 1015.8 |
| 20260902013525 | 59 | 254 | 10.0 | 17.0 | 0.00 | 0.28 | 0.01 | 67 | 1015.8 |
| 20260902013004 | 59 | 262 | 10.0 | 17.0 | 0.00 | 0.28 | 0.01 | 67 | 1015.9 |
| 20260902012504 | 59 | 257 | 9.0 | 18.0 | 0.00 | 0.28 | 0.01 | 68 | 1016.1 |
| 20260902012025 | 59 | 266 | 9.0 | 18.0 | 0.00 | 0.28 | 0.01 | 67 | 1016.1 |
| 20260902011504 | 60 | 295 | 9.0 | 15.0 | 0.00 | 0.28 | 0.01 | 68 | 1016.1 |
| 20260902011004 | 59 | 280 | 10.0 | 15.0 | 0.00 | 0.28 | 0.01 | 70 | 1016.2 |
| 20260902010504 | 58 | 259 | 10.0 | 18.0 | 0.00 | 0.28 | 0.01 | 70 | 1016.3 |
| 20260902010025 | 58 | 249 | 10.0 | 18.0 | 0.00 | 0.28 | 0.01 | 70 | 1016.4 |
| 20260902005504 | 58 | 257 | 11.0 | 18.0 | 0.00 | 0.28 | 0.01 | 70 | 1016.4 |
| 20260902005004 | 58 | 268 | 11.0 | 18.0 | 0.00 | 0.28 | 0.01 | 71 | 1016.5 |
| 20260902004525 | 58 | 258 | 10.0 | 18.0 | 0.00 | 0.28 | 0.01 | 70 | 1016.5 |
| 20260902004003 | 58 | 259 | 9.0 | 15.0 | 0.00 | 0.28 | 0.01 | 70 | 1016.5 |
| 20260902003504 | 58 | 262 | 9.0 | 15.0 | 0.00 | 0.28 | 0.01 | 71 | 1016.6 |
| 20260902003004 | 58 | 267 | 9.0 | 15.0 | 0.00 | 0.28 | 0.01 | 72 | 1016.6 |
| 20260902002504 | 58 | 267 | 9.0 | 18.0 | 0.00 | 0.28 | 0.01 | 72 | 1016.6 |
| 20260902002004 | 57 | 259 | 9.0 | 18.0 | 0.00 | 0.28 | 0.01 | 72 | 1016.7 |
| 20260902001504 | 57 | 266 | 9.0 | 15.0 | 0.00 | 0.28 | 0.01 | 72 | 1016.7 |
| 20260902001004 | 58 | 270 | 9.0 | 14.0 | 0.00 | 0.28 | 0.01 | 73 | 1016.7 |
| 20260902000503 | 57 | 269 | 8.0 | 18.0 | 0.00 | 0.28 | 0.01 | 74 | 1016.6 |
| 20260902000004 | 57 | 263 | 8.0 | 18.0 | 0.00 | 0.28 | 0.01 | 74 | 1016.6 |
| 20260901235503 | 57 | 266 | 8.0 | 15.0 | 0.00 | 0.28 | 0.01 | 75 | 1016.5 |
| 20260901235004 | 57 | 269 | 8.0 | 15.0 | 0.00 | 0.28 | 0.01 | 75 | 1016.6 |
| 20260901234504 | 57 | 269 | 8.0 | 15.0 | 0.00 | 0.28 | 0.01 | 76 | 1016.6 |
| 20260901234004 | 57 | 268 | 8.0 | 13.0 | 0.00 | 0.28 | 0.01 | 78 | 1016.6 |
| 20260901233503 | 57 | 265 | 9.0 | 13.0 | 0.00 | 0.28 | 0.01 | 78 | 1016.7 |
| 20260901233004 | 57 | 260 | 8.0 | 15.0 | 0.00 | 0.28 | 0.01 | 77 | 1016.6 |
| 20260901232504 | 57 | 256 | 7.0 | 15.0 | 0.00 | 0.28 | 0.01 | 77 | 1016.7 |
| 20260901232004 | 57 | 256 | 6.0 | 13.0 | 0.00 | 0.28 | 0.01 | 79 | 1016.8 |
| 20260901231503 | 57 | 257 | 6.0 | 10.0 | 0.00 | 0.28 | 0.01 | 81 | 1016.9 |
| 20260901231024 | 56 | 262 | 6.0 | 10.0 | 0.00 | 0.28 | 0.01 | 82 | 1016.9 |
| 20260901230503 | 56 | 262 | 6.0 | 10.0 | 0.00 | 0.28 | 0.01 | 85 | 1016.8 |
| 20260901230004 | 56 | 256 | 6.0 | 10.0 | 0.00 | 0.28 | 0.01 | 85 | 1016.9 |
| 20260901225504 | 56 | 260 | 5.0 | 10.0 | 0.00 | 0.28 | 0.01 | 87 | 1016.8 |
| 20260901225003 | 56 | 269 | 5.0 | 9.0 | 0.00 | 0.28 | 0.01 | 88 | 1016.8 |
| 20260901224504 | 56 | 269 | 5.0 | 10.0 | 0.00 | 0.28 | 0.01 | 89 | 1016.8 |
| 20260901224025 | 55 | 267 | 6.0 | 10.0 | 0.00 | 0.28 | 0.01 | 90 | 1016.8 |
| 20260901223503 | 55 | 281 | 5.0 | 9.0 | 0.00 | 0.28 | 0.01 | 90 | 1016.7 |
| 20260901223004 | 55 | 289 | 5.0 | 9.0 | 0.00 | 0.28 | 0.01 | 91 | 1016.7 |
| 20260901222525 | 55 | 290 | 5.0 | 8.0 | 0.00 | 0.28 | 0.01 | 91 | 1016.6 |
| 20260901222004 | 55 | 293 | 5.0 | 6.0 | 0.00 | 0.28 | 0.01 | 91 | 1016.6 |
| 20260901221503 | 55 | 275 | 6.0 | 10.0 | 0.00 | 0.28 | 0.01 | 92 | 1016.6 |
| 20260901221003 | 54 | 268 | 4.0 | 10.0 | 0.00 | 0.28 | 0.01 | 92 | 1016.6 |
| 20260901220503 | 55 | 276 | 3.0 | 9.0 | 0.00 | 0.28 | 0.01 | 92 | 1016.5 |
| 20260901220025 | 55 | 281 | 3.0 | 8.0 | 0.00 | 0.28 | 0.01 | 92 | 1016.5 |
| 20260901215504 | 55 | 277 | 3.0 | 5.0 | 0.00 | 0.28 | 0.01 | 92 | 1016.4 |
| 20260901215003 | 55 | 277 | 2.0 | 5.0 | 0.00 | 0.28 | 0.01 | 92 | 1016.5 |
| 20260901214503 | 55 | 264 | 2.0 | 5.0 | 0.00 | 0.28 | 0.01 | 92 | 1016.4 |
| 20260901214003 | 55 | 256 | 2.0 | 5.0 | 0.00 | 0.28 | 0.01 | 92 | 1016.3 |
| 20260901213504 | 55 | 257 | 2.0 | 5.0 | 0.00 | 0.28 | 0.01 | 92 | 1016.3 |
| 20260901213004 | 55 | 257 | 1.0 | 5.0 | 0.00 | 0.28 | 0.01 | 92 | 1016.3 |
| 20260901212503 | 55 | 256 | 1.0 | 5.0 | 0.01 | 0.28 | 0.01 | 92 | 1016.3 |
| 20260901212024 | 55 | 252 | 2.0 | 5.0 | 0.01 | 0.28 | 0.01 | 92 | 1016.3 |
| 20260901211503 | 55 | 246 | 2.0 | 5.0 | 0.01 | 0.28 | 0.01 | 92 | 1016.2 |
| 20260901211024 | 55 | 244 | 2.0 | 5.0 | 0.01 | 0.28 | 0.01 | 92 | 1016.1 |
| 20260901210504 | 55 | 245 | 1.0 | 5.0 | 0.01 | 0.28 | 0.01 | 92 | 1016.0 |
| 20260901210003 | 55 | 273 | 1.0 | 4.0 | 0.01 | 0.28 | 0.01 | 92 | 1016.0 |
| 20260901205524 | 55 | 271 | 1.0 | 5.0 | 0.01 | 0.28 | 0.01 | 92 | 1015.9 |
| 20260901205004 | 55 | 271 | 1.0 | 5.0 | 0.01 | 0.28 | 0.01 | 92 | 1015.9 |
| 20260901204503 | 55 | 263 | 1.0 | 5.0 | 0.01 | 0.28 | 0.01 | 92 | 1015.7 |
| 20260901204024 | 55 | 254 | 2.0 | 5.0 | 0.01 | 0.28 | 0.01 | 92 | 1015.8 |
| 20260901203504 | 55 | 251 | 3.0 | 6.0 | 0.01 | 0.28 | 0.01 | 92 | 1015.7 |
| 20260901203004 | 55 | 257 | 3.0 | 6.0 | 0.01 | 0.28 | 0.01 | 92 | 1015.6 |
| 20260901202504 | 55 | 255 | 3.0 | 6.0 | 0.00 | 0.27 | 0.00 | 92 | 1015.6 |
| 20260901202004 | 55 | 244 | 2.0 | 6.0 | 0.00 | 0.27 | 0.00 | 92 | 1015.6 |
| 20260901201503 | 55 | 243 | 2.0 | 6.0 | 0.00 | 0.27 | 0.00 | 92 | 1015.6 |
| 20260901201004 | 55 | 250 | 1.0 | 6.0 | 0.00 | 0.27 | 0.00 | 92 | 1015.6 |
| 20260901200503 | 55 | 250 | 1.0 | 4.0 | 0.00 | 0.27 | 0.00 | 92 | 1015.5 |
| 20260901200003 | 55 | 246 | 1.0 | 5.0 | 0.00 | 0.27 | 0.00 | 92 | 1015.6 |
| 20260901195504 | 55 | 237 | 2.0 | 6.0 | 0.00 | 0.27 | 0.00 | 92 | 1015.6 |
| 20260901195004 | 55 | 228 | 3.0 | 6.0 | 0.00 | 0.27 | 0.00 | 92 | 1015.5 |
| 20260901194503 | 55 | 228 | 4.0 | 8.0 | 0.00 | 0.27 | 0.00 | 92 | 1015.5 |
| 20260901194003 | 55 | 239 | 5.0 | 9.0 | 0.00 | 0.27 | 0.00 | 92 | 1015.5 |
| 20260901193524 | 55 | 245 | 5.0 | 9.0 | 0.00 | 0.27 | 0.00 | 92 | 1015.5 |
| 20260901193024 | 55 | 259 | 5.0 | 9.0 | 0.00 | 0.27 | 0.00 | 92 | 1015.5 |
| 20260901192524 | 56 | 271 | 4.0 | 8.0 | 0.00 | 0.27 | 0.00 | 92 | 1015.5 |
| 20260901192004 | 56 | 280 | 5.0 | 8.0 | 0.00 | 0.27 | 0.00 | 92 | 1015.5 |
| 20260901191504 | 56 | 289 | 5.0 | 9.0 | 0.00 | 0.27 | 0.00 | 92 | 1015.5 |
| 20260901191003 | 56 | 286 | 5.0 | 9.0 | 0.00 | 0.27 | 0.00 | 92 | 1015.5 |
| 20260901190503 | 56 | 294 | 4.0 | 9.0 | 0.00 | 0.27 | 0.00 | 92 | 1015.4 |
| 20260901190024 | 56 | 303 | 3.0 | 9.0 | 0.00 | 0.27 | 0.00 | 92 | 1015.3 |
| 20260901185503 | 56 | 305 | 2.0 | 6.0 | 0.00 | 0.27 | 0.00 | 92 | 1015.3 |
| 20260901185003 | 56 | 297 | 2.0 | 6.0 | 0.00 | 0.27 | 0.00 | 92 | 1015.3 |
| 20260901184504 | 56 | 254 | 0.0 | 5.0 | 0.00 | 0.27 | 0.00 | 92 | 1015.3 |
| 20260901184025 | 56 | 166 | 0.0 | 3.0 | 0.00 | 0.27 | 0.00 | 92 | 1015.3 |
| 20260901183503 | 56 | 0 | 0.0 | 0.0 | 0.00 | 0.27 | 0.00 | 92 | 1015.3 |
| 20260901183004 | 56 | 0 | 0.0 | 0.0 | 0.00 | 0.27 | 0.00 | 92 | 1015.2 |
| 20260901182503 | 56 | 153 | 1.0 | 3.0 | 0.00 | 0.27 | 0.00 | 91 | 1015.2 |
| 20260901182003 | 56 | 200 | 1.0 | 3.0 | 0.00 | 0.27 | 0.00 | 91 | 1015.3 |
| 20260901181503 | 56 | 209 | 0.0 | 3.0 | 0.00 | 0.27 | 0.00 | 91 | 1015.1 |
| 20260901181004 | 56 | 0 | 0.0 | 0.0 | 0.00 | 0.27 | 0.00 | 91 | 1015.3 |
| 20260901180503 | 56 | 0 | 0.0 | 0.0 | 0.00 | 0.27 | 0.00 | 91 | 1015.3 |
| 20260901180003 | 56 | 0 | 0.0 | 0.0 | 0.00 | 0.27 | 0.00 | 91 | 1015.2 |
| 20260901175503 | 56 | 215 | 0.0 | 1.0 | 0.00 | 0.27 | 0.00 | 92 | 1015.3 |
| 20260901175003 | 56 | 215 | 0.0 | 1.0 | 0.00 | 0.27 | 0.00 | 92 | 1015.2 |
| 20260901174525 | 56 | 215 | 0.0 | 1.0 | 0.00 | 0.27 | 0.00 | 91 | 1015.3 |
| 20260901174024 | 56 | 0 | 1.0 | 0.0 | 0.00 | 0.27 | 0.00 | 91 | 1015.3 |
| 20260901173504 | 56 | 199 | 2.0 | 5.0 | 0.00 | 0.27 | 0.00 | 91 | 1015.3 |
| 20260901173003 | 56 | 206 | 2.0 | 5.0 | 0.00 | 0.27 | 0.00 | 91 | 1015.3 |
| 20260901172504 | 56 | 216 | 2.0 | 5.0 | 0.00 | 0.27 | 0.00 | 91 | 1015.3 |
| 20260901172003 | 56 | 226 | 3.0 | 5.0 | 0.00 | 0.27 | 0.00 | 91 | 1015.4 |
| 20260901171524 | 57 | 246 | 3.0 | 6.0 | 0.00 | 0.27 | 0.00 | 91 | 1015.4 |
| 20260901171003 | 57 | 251 | 3.0 | 6.0 | 0.00 | 0.27 | 0.00 | 91 | 1015.5 |
| 20260901170503 | 57 | 249 | 4.0 | 6.0 | 0.00 | 0.27 | 0.00 | 91 | 1015.5 |
| 20260901170003 | 57 | 250 | 4.0 | 6.0 | 0.00 | 0.27 | 0.00 | 91 | 1015.6 |
| 20260901165504 | 57 | 250 | 4.0 | 6.0 | 0.00 | 0.27 | 0.00 | 91 | 1015.6 |
| 20260901165004 | 57 | 247 | 3.0 | 8.0 | 0.00 | 0.27 | 0.00 | 91 | 1015.6 |
| 20260901164504 | 57 | 243 | 3.0 | 8.0 | 0.00 | 0.27 | 0.00 | 91 | 1015.6 |
| 20260901164004 | 57 | 229 | 4.0 | 6.0 | 0.00 | 0.27 | 0.00 | 91 | 1015.5 |
| 20260901163504 | 57 | 223 | 4.0 | 8.0 | 0.00 | 0.27 | 0.00 | 91 | 1015.5 |
| 20260901163025 | 57 | 226 | 3.0 | 8.0 | 0.00 | 0.27 | 0.00 | 91 | 1015.6 |
| 20260901162504 | 57 | 231 | 3.0 | 6.0 | 0.00 | 0.27 | 0.00 | 91 | 1015.5 |
| 20260901162004 | 58 | 222 | 3.0 | 6.0 | 0.00 | 0.27 | 0.00 | 91 | 1015.5 |
| 20260901161525 | 58 | 242 | 4.0 | 8.0 | 0.00 | 0.27 | 0.00 | 91 | 1015.6 |
| 20260901161025 | 58 | 267 | 5.0 | 8.0 | 0.00 | 0.27 | 0.00 | 91 | 1015.6 |
| 20260901160525 | 58 | 289 | 4.0 | 9.0 | 0.00 | 0.27 | 0.00 | 91 | 1015.7 |
| 20260901160004 | 58 | 300 | 3.0 | 9.0 | 0.00 | 0.27 | 0.00 | 91 | 1015.7 |
| 20260901155504 | 58 | 330 | 3.0 | 6.0 | 0.00 | 0.27 | 0.00 | 91 | 1015.6 |
| 20260901155004 | 58 | 355 | 3.0 | 5.0 | 0.00 | 0.27 | 0.00 | 90 | 1015.6 |
| 20260901154504 | 58 | 355 | 2.0 | 5.0 | 0.00 | 0.27 | 0.00 | 90 | 1015.5 |
| 20260901154004 | 58 | 355 | 1.0 | 5.0 | 0.00 | 0.27 | 0.00 | 90 | 1015.5 |
| 20260901153504 | 58 | 355 | 1.0 | 5.0 | 0.00 | 0.27 | 0.00 | 90 | 1015.5 |
| 20260901153004 | 58 | 355 | 1.0 | 5.0 | 0.00 | 0.27 | 0.00 | 90 | 1015.4 |
| 20260901152504 | 58 | 355 | 1.0 | 5.0 | 0.00 | 0.27 | 0.00 | 90 | 1015.4 |
| 20260901152004 | 58 | 355 | 1.0 | 5.0 | 0.00 | 0.27 | 0.00 | 90 | 1015.5 |
| 20260901151504 | 58 | 355 | 1.0 | 5.0 | 0.00 | 0.27 | 0.00 | 90 | 1015.4 |
| 20260901151004 | 58 | 355 | 1.0 | 4.0 | 0.00 | 0.27 | 0.00 | 90 | 1015.4 |
| 20260901150504 | 58 | 355 | 0.0 | 5.0 | 0.00 | 0.27 | 0.00 | 90 | 1015.5 |
| 20260901150025 | 58 | 355 | 1.0 | 5.0 | 0.00 | 0.27 | 0.00 | 90 | 1015.6 |
| 20260901145525 | 58 | 355 | 1.0 | 5.0 | 0.00 | 0.27 | 0.00 | 90 | 1015.5 |
| 20260901145004 | 58 | 355 | 1.0 | 5.0 | 0.01 | 0.27 | 0.00 | 89 | 1015.5 |
| 20260901144504 | 58 | 355 | 2.0 | 4.0 | 0.01 | 0.27 | 0.00 | 89 | 1015.5 |
| 20260901144004 | 58 | 354 | 2.0 | 5.0 | 0.01 | 0.27 | 0.00 | 89 | 1015.6 |
| 20260901143504 | 58 | 341 | 3.0 | 5.0 | 0.01 | 0.27 | 0.00 | 89 | 1015.6 |
| 20260901143006 | 58 | 330 | 3.0 | 5.0 | 0.01 | 0.27 | 0.00 | 89 | 1015.6 |
| 20260901142525 | 58 | 311 | 3.0 | 6.0 | 0.01 | 0.27 | 0.27 | 89 | 1015.6 |
| 20260901142004 | 58 | 292 | 4.0 | 8.0 | 0.01 | 0.27 | 0.27 | 89 | 1015.6 |
| 20260901141504 | 58 | 284 | 4.0 | 8.0 | 0.01 | 0.27 | 0.27 | 89 | 1015.6 |
| 20260901141004 | 58 | 290 | 4.0 | 8.0 | 0.01 | 0.27 | 0.27 | 89 | 1015.6 |
| 20260901140504 | 58 | 294 | 4.0 | 6.0 | 0.01 | 0.27 | 0.27 | 89 | 1015.6 |
| 20260901140025 | 58 | 294 | 3.0 | 6.0 | 0.01 | 0.27 | 0.27 | 88 | 1015.7 |
| 20260901135504 | 58 | 288 | 2.0 | 6.0 | 0.01 | 0.27 | 0.27 | 88 | 1015.7 |
| 20260901135004 | 58 | 279 | 1.0 | 5.0 | 0.00 | 0.26 | 0.26 | 88 | 1015.6 |
| 20260901134504 | 58 | 276 | 1.0 | 5.0 | 0.00 | 0.26 | 0.26 | 88 | 1015.7 |
| 20260901134004 | 59 | 272 | 1.0 | 5.0 | 0.00 | 0.26 | 0.26 | 88 | 1015.6 |
| 20260901133504 | 59 | 262 | 1.0 | 5.0 | 0.00 | 0.26 | 0.26 | 88 | 1015.7 |
| 20260901133004 | 59 | 262 | 1.0 | 5.0 | 0.00 | 0.26 | 0.26 | 88 | 1015.7 |
| 20260901132525 | 59 | 271 | 2.0 | 5.0 | 0.00 | 0.26 | 0.26 | 88 | 1015.7 |
| 20260901132004 | 59 | 267 | 2.0 | 5.0 | 0.00 | 0.26 | 0.26 | 88 | 1015.7 |
| 20260901131525 | 59 | 267 | 2.0 | 5.0 | 0.00 | 0.26 | 0.26 | 87 | 1015.7 |
| 20260901131025 | 59 | 275 | 1.0 | 5.0 | 0.00 | 0.26 | 0.26 | 87 | 1015.7 |
| 20260901130504 | 59 | 284 | 1.0 | 4.0 | 0.00 | 0.26 | 0.26 | 87 | 1015.7 |
| 20260901130004 | 59 | 267 | 1.0 | 5.0 | 0.00 | 0.26 | 0.26 | 87 | 1015.7 |
| 20260901125525 | 59 | 259 | 1.0 | 5.0 | 0.00 | 0.26 | 0.26 | 87 | 1015.6 |
| 20260901125004 | 59 | 243 | 1.0 | 5.0 | 0.00 | 0.26 | 0.26 | 87 | 1015.7 |
| 20260901124504 | 59 | 243 | 0.0 | 5.0 | 0.00 | 0.26 | 0.26 | 87 | 1015.8 |
| 20260901124004 | 59 | 240 | 0.0 | 3.0 | 0.00 | 0.26 | 0.26 | 87 | 1015.8 |
| 20260901123504 | 59 | 231 | 0.0 | 3.0 | 0.00 | 0.26 | 0.26 | 87 | 1015.8 |
| 20260901123025 | 59 | 235 | 0.0 | 3.0 | 0.00 | 0.26 | 0.26 | 87 | 1015.9 |
| 20260901122503 | 59 | 0 | 0.0 | 0.0 | 0.00 | 0.26 | 0.26 | 87 | 1015.8 |
| 20260901122004 | 59 | 0 | 0.0 | 0.0 | 0.00 | 0.26 | 0.26 | 87 | 1015.9 |
| 20260901121504 | 59 | 0 | 0.0 | 0.0 | 0.00 | 0.26 | 0.26 | 87 | 1015.9 |
| 20260901121004 | 59 | 0 | 0.0 | 0.0 | 0.00 | 0.26 | 0.26 | 86 | 1015.9 |
| 20260901120503 | 59 | 0 | 0.0 | 0.0 | 0.00 | 0.26 | 0.26 | 86 | 1015.8 |
| 20260901120004 | 59 | 0 | 0.0 | 0.0 | 0.00 | 0.26 | 0.26 | 86 | 1015.8 |
| 20260901115504 | 59 | 0 | 0.0 | 0.0 | 0.00 | 0.26 | 0.26 | 86 | 1015.8 |
| 20260901115004 | 59 | 0 | 0.0 | 0.0 | 0.00 | 0.26 | 0.26 | 86 | 1015.8 |
| 20260901114504 | 59 | 0 | 0.0 | 0.0 | 0.00 | 0.26 | 0.26 | 85 | 1015.8 |
| 20260901114025 | 59 | 0 | 0.0 | 0.0 | 0.00 | 0.26 | 0.26 | 85 | 1015.8 |
| 20260901113503 | 59 | 0 | 0.0 | 0.0 | 0.00 | 0.26 | 0.26 | 85 | 1015.7 |
| 20260901113004 | 59 | 0 | 1.0 | 5.0 | 0.00 | 0.26 | 0.26 | 85 | 1015.7 |
| 20260901112503 | 59 | 266 | 1.0 | 5.0 | 0.00 | 0.26 | 0.26 | 85 | 1015.7 |
| 20260901112003 | 59 | 265 | 1.0 | 5.0 | 0.00 | 0.26 | 0.26 | 85 | 1015.7 |
| 20260901111505 | 59 | 263 | 2.0 | 5.0 | 0.00 | 0.26 | 0.26 | 85 | 1015.7 |
| 20260901111004 | 60 | 253 | 2.0 | 5.0 | 0.00 | 0.26 | 0.26 | 85 | 1015.6 |
| 20260901110503 | 59 | 253 | 2.0 | 6.0 | 0.00 | 0.26 | 0.26 | 85 | 1015.6 |
| 20260901110024 | 60 | 248 | 2.0 | 6.0 | 0.00 | 0.26 | 0.26 | 85 | 1015.6 |
| 20260901105503 | 60 | 246 | 4.0 | 8.0 | 0.00 | 0.26 | 0.26 | 85 | 1015.6 |
| 20260901105003 | 59 | 246 | 4.0 | 8.0 | 0.00 | 0.26 | 0.26 | 85 | 1015.7 |
| 20260901104504 | 60 | 240 | 4.0 | 8.0 | 0.00 | 0.26 | 0.26 | 85 | 1015.6 |
| 20260901104004 | 60 | 236 | 5.0 | 8.0 | 0.00 | 0.26 | 0.26 | 84 | 1015.5 |
| 20260901103503 | 60 | 233 | 4.0 | 9.0 | 0.00 | 0.26 | 0.26 | 84 | 1015.5 |
| 20260901103004 | 60 | 221 | 4.0 | 9.0 | 0.00 | 0.26 | 0.26 | 84 | 1015.6 |
| 20260901102504 | 60 | 228 | 3.0 | 9.0 | 0.00 | 0.26 | 0.26 | 83 | 1015.5 |
| 20260901102004 | 60 | 269 | 2.0 | 8.0 | 0.00 | 0.26 | 0.26 | 82 | 1015.3 |
| 20260901101503 | 60 | 299 | 2.0 | 6.0 | 0.00 | 0.26 | 0.26 | 82 | 1015.2 |
| 20260901101003 | 60 | 335 | 4.0 | 6.0 | 0.00 | 0.26 | 0.26 | 81 | 1015.0 |
| 20260901100503 | 61 | 351 | 5.0 | 8.0 | 0.00 | 0.26 | 0.26 | 81 | 1014.9 |
| 20260901100024 | 61 | 357 | 6.0 | 10.0 | 0.00 | 0.26 | 0.26 | 81 | 1014.7 |
| 20260901095504 | 61 | 1 | 6.0 | 10.0 | 0.00 | 0.26 | 0.26 | 81 | 1014.7 |
| 20260901095024 | 61 | 358 | 7.0 | 10.0 | 0.00 | 0.26 | 0.26 | 80 | 1014.6 |
| 20260901094504 | 61 | 357 | 7.0 | 11.0 | 0.00 | 0.26 | 0.26 | 80 | 1014.6 |
| 20260901094003 | 61 | 356 | 8.0 | 11.0 | 0.00 | 0.26 | 0.26 | 80 | 1014.5 |
| 20260901093503 | 61 | 354 | 9.0 | 11.0 | 0.00 | 0.26 | 0.26 | 80 | 1014.4 |
| 20260901093003 | 61 | 358 | 10.0 | 17.0 | 0.00 | 0.26 | 0.26 | 80 | 1014.3 |
| 20260901092503 | 60 | 10 | 10.0 | 18.0 | 0.00 | 0.26 | 0.26 | 80 | 1014.1 |
| 20260901092024 | 60 | 15 | 10.0 | 18.0 | 0.00 | 0.26 | 0.26 | 80 | 1014.0 |
| 20260901091503 | 60 | 13 | 10.0 | 17.0 | 0.00 | 0.26 | 0.26 | 81 | 1013.9 |
| 20260901091003 | 60 | 16 | 11.0 | 15.0 | 0.02 | 0.26 | 0.26 | 81 | 1013.8 |
| 20260901090503 | 60 | 19 | 11.0 | 18.0 | 0.02 | 0.26 | 0.26 | 81 | 1013.9 |
| 20260901090004 | 60 | 25 | 11.0 | 18.0 | 0.02 | 0.26 | 0.26 | 82 | 1013.8 |
| 20260901085503 | 60 | 20 | 11.0 | 18.0 | 0.02 | 0.26 | 0.26 | 82 | 1013.9 |
| 20260901085025 | 60 | 15 | 11.0 | 19.0 | 0.02 | 0.26 | 0.26 | 83 | 1014.0 |
| 20260901084503 | 60 | 18 | 12.0 | 19.0 | 0.03 | 0.26 | 0.26 | 84 | 1013.9 |
| 20260901084024 | 60 | 15 | 12.0 | 19.0 | 0.03 | 0.26 | 0.26 | 84 | 1013.9 |
| 20260901083504 | 60 | 17 | 11.0 | 20.0 | 0.03 | 0.26 | 0.26 | 85 | 1013.9 |
| 20260901083003 | 60 | 21 | 9.0 | 20.0 | 0.03 | 0.26 | 0.26 | 85 | 1013.8 |
| 20260901082503 | 59 | 21 | 7.0 | 19.0 | 0.04 | 0.26 | 0.26 | 86 | 1014.1 |
| 20260901082004 | 59 | 22 | 5.0 | 13.0 | 0.06 | 0.26 | 0.26 | 87 | 1014.0 |
| 20260901081503 | 59 | 24 | 3.0 | 11.0 | 0.06 | 0.26 | 0.26 | 87 | 1014.3 |
| 20260901081003 | 59 | 44 | 3.0 | 8.0 | 0.07 | 0.24 | 0.24 | 87 | 1014.3 |
| 20260901080503 | 59 | 86 | 4.0 | 6.0 | 0.09 | 0.24 | 0.24 | 87 | 1014.3 |
| 20260901080003 | 59 | 102 | 5.0 | 9.0 | 0.10 | 0.24 | 0.24 | 87 | 1014.1 |
| 20260901075504 | 59 | 86 | 6.0 | 11.0 | 0.12 | 0.24 | 0.24 | 87 | 1013.9 |
| 20260901075004 | 59 | 61 | 6.0 | 11.0 | 0.17 | 0.24 | 0.24 | 86 | 1013.7 |
| 20260901074504 | 59 | 75 | 7.0 | 9.0 | 0.20 | 0.23 | 0.23 | 86 | 1013.9 |
| 20260901074004 | 59 | 104 | 7.0 | 11.0 | 0.20 | 0.23 | 0.23 | 86 | 1014.0 |
| 20260901073504 | 59 | 119 | 7.0 | 11.0 | 0.23 | 0.23 | 0.23 | 86 | 1014.0 |
| 20260901073004 | 59 | 101 | 7.0 | 14.0 | 0.23 | 0.23 | 0.23 | 86 | 1013.9 |
| 20260901072504 | 59 | 65 | 7.0 | 14.0 | 0.22 | 0.22 | 0.22 | 85 | 1013.5 |
| 20260901072004 | 59 | 67 | 6.0 | 13.0 | 0.20 | 0.20 | 0.20 | 85 | 1013.9 |
| 20260901071504 | 60 | 77 | 4.0 | 11.0 | 0.20 | 0.20 | 0.20 | 84 | 1014.6 |
| 20260901071004 | 60 | 85 | 3.0 | 6.0 | 0.17 | 0.17 | 0.17 | 83 | 1014.9 |
| 20260901070504 | 60 | 164 | 4.0 | 9.0 | 0.15 | 0.15 | 0.15 | 83 | 1015.1 |
| 20260901070004 | 60 | 173 | 5.0 | 9.0 | 0.13 | 0.13 | 0.13 | 82 | 1015.2 |
| 20260901065525 | 61 | 196 | 7.0 | 13.0 | 0.12 | 0.12 | 0.12 | 81 | 1015.3 |
| 20260901065004 | 61 | 211 | 7.0 | 14.0 | 0.07 | 0.07 | 0.07 | 80 | 1015.8 |
| 20260901064504 | 61 | 203 | 7.0 | 14.0 | 0.03 | 0.03 | 0.03 | 79 | 1015.5 |
| 20260901064004 | 62 | 191 | 8.0 | 11.0 | 0.02 | 0.02 | 0.02 | 78 | 1015.4 |
| 20260901063504 | 63 | 201 | 9.0 | 15.0 | 0.00 | 0.00 | 0.00 | 76 | 1015.6 |
| 20260901063004 | 63 | 211 | 11.0 | 17.0 | 0.00 | 0.00 | 0.00 | 74 | 1015.7 |
| 20260901062504 | 64 | 217 | 14.0 | 20.0 | 0.00 | 0.00 | 0.00 | 72 | 1015.5 |
| 20260901062004 | 64 | 217 | 16.0 | 29.0 | 0.00 | 0.00 | 0.00 | 70 | 1015.4 |
| 20260901061504 | 66 | 229 | 18.0 | 30.0 | 0.00 | 0.00 | 0.00 | 68 | 1015.3 |
| 20260901061004 | 67 | 245 | 18.0 | 33.0 | 0.00 | 0.00 | 0.00 | 63 | 1015.3 |
| 20260901060504 | 68 | 249 | 18.0 | 33.0 | 0.00 | 0.00 | 0.00 | 60 | 1015.3 |
| 20260901060004 | 70 | 262 | 17.0 | 33.0 | 0.00 | 0.00 | 0.00 | 56 | 1015.0 |
| 20260901055504 | 70 | 278 | 17.0 | 34.0 | 0.00 | 0.00 | 0.00 | 53 | 1014.6 |
| 20260901055004 | 70 | 281 | 15.0 | 34.0 | 0.00 | 0.00 | 0.00 | 54 | 1014.7 |
| 20260901054504 | 70 | 287 | 12.0 | 29.0 | 0.00 | 0.00 | 0.00 | 54 | 1014.5 |
| 20260901054004 | 70 | 292 | 9.0 | 27.0 | 0.00 | 0.00 | 0.00 | 55 | 1014.4 |
| 20260901053504 | 70 | 286 | 9.0 | 17.0 | 0.00 | 0.00 | 0.00 | 58 | 1014.3 |